Location: Oberwangen
(47.4286°N, 8.9679°E)
Time: 11:58:41
(UTC+00:00)

Cosmos 1953 Rocket - Pass Details

Date: 26 October 2021
Orbit: 604 x 635 km, 82.5° (Epoch: 26 November)

Event Time Altitude Azimuth Distance (km) Brightness Sun altitude
Rises 17:17:34 0° 4° (N) 2,944 6.9 -10.9°
Reaches altitude 10° 17:20:32 10° 24° (NNE) 2,027 5.9 -11.4°
Maximum altitude 17:23:31 17° 66° (ENE) 1,590 5.1 -11.9°
Enters shadow 17:24:01 17° 75° (ENE) 1,602 5.0 -12.0°
